Left ArrowRight Arrow

Hourly Observations for March 22, 2019

Temp ( °F °C ) Dew Point ( °F °C ) Humidity (%) Winds ( mph kmh ) Pressure ( in mb ) Visibility ( mi km ) Precip ( " mm )
12:56 am 00:56 Clear 39 4 30 -1 70 70 WNW 7 11 30.20 1023 10 16 0.00 0.00
1:56 am 01:56 Clear 37 3 30 -1 75 75 NW 9 15 30.20 1023 10 16 0.00 0.00
2:56 am 02:56 Clear 37 3 30 -1 75 75 WNW 8 13 30.22 1023 10 16 0.00 0.00
3:56 am 03:56 Clear 37 3 30 -1 75 75 NW 7 11 30.22 1023 10 16 0.00 0.00
4:56 am 04:56 Clear 36 2 30 -1 81 81 NNW 9 15 30.22 1024 10 16 0.00 0.00
5:56 am 05:56 Clear 34 1 28 -2 81 81 W 5 7 30.24 1024 10 16 0.00 0.00
6:56 am 06:56 Clear 32 0 28 -2 87 87 WNW 3 6 30.25 1025 10 16 0.00 0.00
8:56 am 08:56 Sunny 39 4 30 -1 70 70 W 6 9 30.26 1025 10 16 0.00 0.00
9:56 am 09:56 Sunny 48 9 34 1 58 58 Calm 30.24 1024 10 16 0.00 0.00
10:56 am 10:56 Sunny 50 10 32 0 50 50 N 3 6 30.24 1024 10 16 0.00 0.00
11:56 am 11:56 Sunny 52 11 30 -1 44 44 Calm 30.23 1024 10 16 0.00 0.00
12:56 pm 12:56 Sunny 55 13 30 -1 38 38 E 3 6 30.22 1023 10 16 0.00 0.00
1:56 pm 13:56 Sunny 57 14 27 -3 31 31 ESE 7 11 30.20 1023 10 16 0.00 0.00
2:56 pm 14:56 Sunny 57 14 27 -3 31 31 ENE 6 9 30.19 1022 10 16 0.00 0.00
3:56 pm 15:56 Sunny 61 16 21 -6 22 22 Calm 30.14 1021 10 16 0.00 0.00
4:56 pm 16:56 Sunny 61 16 25 -4 25 25 SE 6 9 30.13 1020 10 16 0.00 0.00
5:56 pm 17:56 Sunny 59 15 25 -4 27 27 S 5 7 30.13 1020 9 14 0.00 0.00
6:56 pm 18:56 Sunny 59 15 23 -5 25 25 Calm 30.12 1020 10 16 0.00 0.00
7:56 pm 19:56 Clear 55 13 25 -4 31 31 Calm 30.12 1020 10 16 0.00 0.00
8:56 pm 20:56 Clear 52 11 30 -1 44 44 Calm 30.14 1021 10 16 0.00 0.00
9:56 pm 21:56 Clear 50 10 28 -2 43 43 NE 7 11 30.15 1021 10 16 0.00 0.00
10:56 pm 22:56 Mostly Clear 50 10 28 -2 43 43 ENE 8 13 30.16 1021 10 16 0.00 0.00
11:56 pm 23:56 Clear 48 9 28 -2 46 46 ENE 7 11 30.18 1022 10 16 0.00 0.00

Powered by Vaisala Xweather